Weather Roundup
Issued by NWS

Home | Current Version | Previous Version | Graphics & Text | Print | Product List | Glossary Off
Versions: 1 2 3 4 5 6 7 8 9 10 11 12 13 14 15 16 17 18 19 20 21 22 23 24 25 26 27 28 29 30 31 32 33 34 35 36 37 38 39 40 41 42 43 44 45 46 47 48 49 50

000
NZUS93 KARX 040759
HRRWXR

CURRENT HOURLY OBSERVATIONS ACROSS
MUCH OF THE UPPER MISSISSIPPI VALLEY
NATIONAL WEATHER SERVICE LA CROSSE WI
300 AM CDT FRI SEP 04 2015


...SOUTHEAST MINNESOTA...


CITY           SKY/WX    TMP DP  RH WIND       PRES   REMARKS
ROCHESTER      CLEAR     72  71  97 SE8       29.95S FOG
ROCHESTER/MAYO FAIR      73  73 100 E9        29.95S
WINONA         PTCLDY    72  66  83 SE7       29.96S
AUSTIN         CLEAR     73  70  88 SE5       29.93S
ALBERT LEA     CLEAR     73  72  94 S5        29.92S
DODGE CENTER   CLEAR     72  72 100 SE6       29.94S FOG
PRESTON        PTCLDY    73  71  94 E6        29.96S FOG
OWATONNA       CLEAR     73  70  88 SE8       29.92R
FARIBAULT      CLEAR     73  72  94 SE6       29.92S
$$

...ELSEWHERE IN MINNESOTA...


CITY           SKY/WX    TMP DP  RH WIND       PRES   REMARKS
MINNEAPOLIS    CLEAR     72  68  87 SE12      29.91R
INTNL FALLS    PTCLDY    56  53  90 SE7       29.94F
DULUTH         CLEAR     56  53  90 E9        30.00R
RED WING       CLEAR     72  66  83 E8        29.92S
REDWOOD FALLS  PTCLDY    75  72  90 SE8       29.84S
MANKATO        CLEAR     73  72  94 SE8       29.89S
WORTHINGTON    PTCLDY    73  66  78 S10       29.87R
FAIRMONT       PTCLDY    73  64  73 S7        29.88S
$$

...SOUTHWEST WISCONSIN...


CITY           SKY/WX    TMP DP  RH WIND       PRES   REMARKS
LA CROSSE      MOCLDY    71  66  84 SE6       29.97R
PRAIRIE DU CHI MOCLDY    73  68  86 E3        29.95R
BOSCOBEL       PTCLDY    70  67  90 CALM      29.97R
LONE ROCK      NOT AVBL
PLATTEVILLE    PTCLDY    70  68  95 E9        29.97S
FORT MC COY    CLOUDY    69  64  83 CALM      29.99S
VIROQUA          N/A     67  67 100 E8        30.00R
WIS DELLS      CLOUDY    69  65  86 CALM      30.00R
$$

...ELSEWHERE IN WISCONSIN...


CITY           SKY/WX    TMP DP  RH WIND       PRES   REMARKS
MILWAUKEE      PTCLDY    68  64  87 NW3       29.97S
MADISON        CLOUDY    71  65  81 E3        29.99R
GREEN BAY      CLOUDY    67  64  90 N6        29.99F
EAU CLAIRE     NOT AVBL
BLACK RVR FLS  CLOUDY    71  65  81 E3        29.98S
MEDFORD        CLEAR     60  60 100 E6        30.03S FOG
WAUSAU         CLEAR     63  62  97 CALM      30.02R FOG
WIS RAPIDS     MOCLDY    65  62  90 CALM      30.02R
MARSHFIELD     MOCLDY    65  61  87 E5        30.02R
RICE LAKE      CLOUDY    67  64  88 E5        30.00S
$$

...NORTHEAST IOWA...


CITY           SKY/WX    TMP DP  RH WIND       PRES   REMARKS
DECORAH        PTCLDY    73  73 100 E6        29.95S FOG
MASON CITY     PTCLDY    70  69  97 SE5       29.93F
CHARLES CITY   MOCLDY    73  73 100 SE3       29.95R
OELWEIN        PTCLDY    70  70 100 SE6       29.95S
$$

...ELSEWHERE IN IOWA...


CITY           SKY/WX    TMP DP  RH WIND       PRES   REMARKS
DES MOINES     PTCLDY    74  68  81 S8        29.92F
IOWA CITY      PTCLDY    72  69  90 CALM      29.94S
FORT DODGE     PTCLDY    75  66  73 S8        29.92R
$$

...NORTHERN ILLINOIS...


CITY           SKY/WX    TMP DP  RH WIND       PRES   REMARKS
CHICAGO-OHARE  PTCLDY    70  67  90 N3        29.97R
CHICAGO-MIDWAY CLEAR     73  66  78 CALM      29.96S
MOLINE         PTCLDY    73  69  87 CALM      29.94S
ROCKFORD       CLEAR     69  65  86 E3        29.99R
PEORIA         CLEAR     76  68  76 CALM      29.96R
$$

NOTE: "FAIR" INDICATES FEW OR NO CLOUDS BELOW 12,000 FEET WITH NO
SIGNIFICANT WEATHER AND/OR OBSTRUCTIONS TO VISIBILITY. WIND
SPEEDS ARE IN MILES-PER-HOUR.



USA.gov is the U.S. government's official web portal to all federal, state and local government web resources and services.